SL-14 DEB, 45288

Orbit data source: Space-Track

SL-14 DEB, 45288 is space debris in LEO originally from a launch on Thu, 15 Aug 1991 UTC launched from the Plesetsk Missile And Space Complex (PKMTR). Debris objects in space refer to the collection of defunct objects orbiting the Earth. Examples of debris include non-operational satellites, rocket bodies, and fragments generated from explosions, collisions, or faulty payload assembly.

Loading next visibility...
Identifier
45288, 1991-056AA
Orbit
LEO
Country
Flag of CISCIS
Related business
Manufacturer
Unknown
Mission
Spacecraft
Bus & Motor
Unknown
Mass
Unknown
Launch date (UTC)
1991-08-15 (34 years ago)
Launch vehicle
Unknown
Launch site
Plesetsk Missile And Space Complex (PKMTR)
Object type
Payload
Rocket body
Debris
Shape & HBR
Unknown
Radar Cross Section
Small (<0.1 m²)

Expand to show TLE details & history
Last TLE update: 1 day ago

TLE from 1 day ago
0 SL-14 DEB
1 45288U 91056AA  25241.85316782  .00004822  00000-0  16469-1 0  9995
2 45288  82.6247  83.3348 0245451 207.0431 151.7713 12.88507147258806
Epoch: 2025-08-29T20:28Z
TLE epoch observation values (Epoch: 2025-08-29T20:28:33.699Z)
Latitude
-0.00005°
Longitude
157.89852°
Altitude
1,477.463 km
Speed
7.047 km/s
True Right ascension
05h 33m 20s
True Declination
0° 00' 00"
Sunlit
Object was in daylight at epoch
Visualization orbit readout
Latitude
Unknown
Longitude
Unknown
Altitude
Unknown
Speed
Unknown
Apparent Right ascension
Unknown
Apparent Declination
Unknown
Sunlit
N/A
Visualization observer readout
Local Sidereal Time
15:54:33
Azimuth
Unknown
Elevation
Unknown
Doppler factor
Unknown
Orbital elements
Apogee altitude
1,493.311 km
Perigee altitude
1,116.157 km
Semi-major axis
7,682.871 km
Eccentricity
0.02455
Inclination
82.6247°
RAAN
83.3348°
Arg. of periapsis
207.0431°
True anomaly
153.0665°
Mean anomaly
151.7713°
Eccentric anomaly
152.42236°
Mean motion
3.22298 °/min
Orbital period
111.7 mins
BSTAR
0.016469
Loading maneuver chart data...
Computing Atmospheric mass density...
Loading historical data...
Loading historical data...
Loading historical data...
Loading historical data...
Loading historical data...
Loading historical data...
Loading historical data...

Documentation

Showing up to 5 results
|